Weather History for KMGN - January, 2013

Change the Weather History Date:

Saturday, January 19, 2013

  Actual Average (KPLN) Record (KPLN)
Temperature  
Mean Temperature 32 °F -  
Max Temperature 35 °F 26 °F 47 °F (1973)
Min Temperature 28 °F 6 °F -24 °F (1962)
Degree Days  
Heating Degree Days 34    
Moisture  
Dew Point 28 °F    
Average Humidity 90    
Maximum Humidity 95    
Minimum Humidity 76    
Precipitation  
Precipitation 0.00 in - - ()
Sea Level Pressure  
Sea Level Pressure 29.62 in    
Wind  
Wind Speed 5 mph (WNW)    
Max Wind Speed 22 mph    
Max Gust Speed 31 mph    
Visibility 6 miles    
Events Rain , Snow    
Averages and records for this station are not official NWS values.
T = Trace of Precipitation, MM = Missing Value Source: NWS Daily Summary

Daily Weather History Graph

Daily Weather History Graph

Search for Another Location

Airport or City:

Trip Planner

Search our weather history database for the weather conditions in past years. The results will help you decide how hot, cold, wet, or windy it might be!

Date:

Astronomy

Jan. 19, 2013 Rise Set
Actual Time 8:12 AM EST 5:28 PM EST
Civil Twilight 7:40 AM EST 6:01 PM EST
Nautical Twilight 7:03 AM EST 6:37 PM EST
Astronomical Twilight 6:28 AM EST 7:12 PM EST
Moon 11:57 AM EST (1/19) 1:42 AM EST (1/19)
Length of Visible Light 10h 21m
Length of Day
9h 15m
First Quarter, 57% of the Moon is Illuminated
Jan 19
First Quarter
Jan 26
Full
Feb 3
Last Quarter
Feb 10
New
Feb 17
First Quarter

Hourly Weather History & Observations

Time (EST) Temp. Windchill Dew Point Humidity Pressure Visibility Wind Dir Wind Speed Gust Speed Precip Events Conditions
12:15 AM 30.6 °F 25.8 °F 28.0 °F 90% 29.70 in 7.0 mi North 4.6 mph - N/A   Overcast
12:34 AM 29.8 °F 22.2 °F 27.1 °F 90% 29.70 in 10.0 mi NNW 8.1 mph - N/A   Overcast
12:54 AM 28.2 °F 19.5 °F 25.5 °F 90% 29.71 in 10.0 mi NNW 9.2 mph - N/A   Overcast
1:15 AM 28.0 °F 19.3 °F 25.3 °F 90% 29.71 in 10.0 mi North 9.2 mph - N/A   Overcast
1:34 AM 28.0 °F 20.0 °F 25.3 °F 90% 29.70 in 10.0 mi North 8.1 mph - N/A   Overcast
1:55 AM 28.0 °F 21.7 °F 25.2 °F 89% 29.71 in 10.0 mi North 5.8 mph - N/A   Overcast
2:15 AM 28.0 °F 22.8 °F 24.6 °F 87% 29.72 in 10.0 mi NNE 4.6 mph - N/A   Overcast
2:34 AM 28.0 °F 22.8 °F 24.4 °F 86% 29.72 in 7.0 mi North 4.6 mph - N/A Snow Light Snow
2:55 AM 28.0 °F 21.7 °F 24.3 °F 86% 29.73 in 10.0 mi North 5.8 mph - N/A   Overcast
3:15 AM 28.0 °F - 24.6 °F 87% 29.74 in 4.0 mi Calm Calm - N/A Snow Light Snow
3:34 AM 28.0 °F - 24.8 °F 88% 29.74 in 7.0 mi Calm Calm - N/A Snow Light Snow
3:55 AM 28.0 °F - 24.8 °F 88% 29.74 in 10.0 mi Calm Calm - N/A   Overcast
4:14 AM 28.0 °F - 24.6 °F 87% 29.74 in 10.0 mi Calm Calm - N/A   Overcast
4:34 AM 28.0 °F - 24.6 °F 87% 29.74 in 10.0 mi Calm Calm - N/A   Overcast
4:55 AM 28.0 °F - 24.8 °F 88% 29.74 in 10.0 mi Calm Calm - N/A   Overcast
5:14 AM 28.0 °F - 25.3 °F 90% 29.74 in 7.0 mi Calm Calm - N/A   Overcast
5:34 AM 28.0 °F - 24.8 °F 88% 29.75 in 10.0 mi Calm Calm - N/A   Overcast
5:55 AM 28.0 °F - 25.2 °F 89% 29.75 in 10.0 mi Calm Calm - N/A   Overcast
6:14 AM 28.0 °F - 24.8 °F 88% 29.76 in 10.0 mi Calm Calm - N/A   Overcast
6:35 AM 28.0 °F 24.2 °F 24.8 °F 88% 29.77 in 7.0 mi West 3.5 mph - N/A   Overcast
6:55 AM 28.0 °F 22.8 °F 24.8 °F 88% 29.77 in 7.0 mi West 4.6 mph - N/A   Overcast
7:14 AM 28.0 °F 24.2 °F 25.0 °F 88% 29.78 in 7.0 mi West 3.5 mph - N/A   Overcast
7:35 AM 28.0 °F 22.8 °F 25.2 °F 89% 29.78 in 7.0 mi West 4.6 mph - N/A   Overcast
7:55 AM 28.0 °F - 25.2 °F 89% 29.78 in 7.0 mi Calm Calm - N/A   Overcast
8:14 AM 28.0 °F - 24.8 °F 88% 29.77 in 10.0 mi Calm Calm - N/A   Overcast
8:35 AM 28.0 °F - 24.8 °F 88% 29.78 in 10.0 mi Calm Calm - N/A   Overcast
8:55 AM 28.0 °F - 24.8 °F 88% 29.78 in 7.0 mi Calm Calm - N/A   Overcast
9:14 AM 28.0 °F - 24.8 °F 88% 29.79 in 7.0 mi Calm Calm - N/A   Overcast
9:35 AM 28.0 °F - 25.2 °F 89% 29.78 in 4.0 mi Calm Calm - N/A Snow Light Snow
9:55 AM 28.0 °F - 25.3 °F 90% 29.78 in 4.0 mi Calm Calm - N/A   Overcast
10:14 AM 28.0 °F 24.2 °F 25.3 °F 90% 29.77 in 2.5 mi East 3.5 mph - N/A Snow Light Snow
10:35 AM 28.0 °F 22.8 °F 25.7 °F 91% 29.77 in 1.5 mi ENE 4.6 mph - N/A Snow Light Snow
10:55 AM 28.0 °F 21.7 °F 25.7 °F 91% 29.76 in 1.2 mi ENE 5.8 mph - N/A Snow Light Snow
11:14 AM 28.0 °F 21.7 °F 25.7 °F 91% 29.74 in 3.0 mi East 5.8 mph - N/A Snow Light Snow
11:35 AM 28.0 °F 22.8 °F 25.5 °F 90% 29.73 in 2.0 mi East 4.6 mph - N/A Snow Light Snow
11:54 AM 28.0 °F 21.7 °F 25.5 °F 90% 29.71 in 1.8 mi East 5.8 mph - N/A Snow Light Snow
12:14 PM 28.0 °F 22.8 °F 25.7 °F 91% 29.71 in 1.5 mi East 4.6 mph - N/A Snow Light Snow
12:35 PM 28.0 °F 24.2 °F 25.9 °F 92% 29.69 in 1.8 mi East 3.5 mph - N/A Snow Light Snow
12:54 PM 28.4 °F 23.3 °F 26.4 °F 92% 29.66 in 1.8 mi ENE 4.6 mph - N/A Snow Light Snow
1:15 PM 28.4 °F 23.3 °F 26.6 °F 93% 29.64 in 2.5 mi East 4.6 mph - N/A Snow Light Snow
1:35 PM 29.7 °F 26.1 °F 28.0 °F 94% 29.62 in 1.8 mi ENE 3.5 mph - N/A Snow Light Snow
1:54 PM 29.7 °F 24.7 °F 28.0 °F 94% 29.60 in 2.5 mi ENE 4.6 mph - N/A Snow Light Snow
2:15 PM 30.6 °F - 28.9 °F 94% 29.59 in 3.0 mi Calm Calm - N/A   Overcast
2:35 PM 31.1 °F - 29.5 °F 94% 29.57 in 3.0 mi Calm Calm - N/A Snow Light Snow
2:54 PM 32.9 °F 29.8 °F 31.6 °F 95% 29.56 in 3.0 mi WSW 3.5 mph - N/A   Overcast
3:15 PM 33.1 °F 28.7 °F 31.8 °F 95% 29.54 in 4.0 mi SW 4.6 mph - N/A   Light Drizzle
3:35 PM 34.3 °F 29.2 °F 32.5 °F 93% 29.53 in 5.0 mi WSW 5.8 mph - N/A   Overcast
3:54 PM 35.2 °F 30.3 °F 33.3 °F 92% 29.52 in 4.0 mi WSW 5.8 mph - N/A   Light Drizzle
4:15 PM 35.2 °F 32.4 °F 33.3 °F 92% 29.50 in 4.0 mi WSW 3.5 mph - N/A   Overcast
4:35 PM 35.2 °F 32.4 °F 33.4 °F 93% 29.49 in 4.0 mi WSW 3.5 mph - N/A   Overcast
4:54 PM 35.2 °F 31.2 °F 33.4 °F 93% 29.49 in 5.0 mi WSW 4.6 mph - N/A   Overcast
5:15 PM 35.2 °F 28.8 °F 33.4 °F 93% 29.48 in 7.0 mi WSW 8.1 mph - N/A   Drizzle
5:35 PM 35.8 °F 27.8 °F 33.8 °F 92% 29.47 in 7.0 mi SW 11.5 mph 17.3 mph N/A   Drizzle
5:54 PM 35.6 °F 27.1 °F 33.1 °F 91% 29.46 in 5.0 mi SW 12.7 mph 17.3 mph N/A Rain Rain
6:15 PM 35.4 °F 27.3 °F 33.1 °F 91% 29.45 in 7.0 mi SW 11.5 mph 18.4 mph N/A Rain Rain
6:34 PM 35.2 °F 27.1 °F 33.1 °F 92% 29.44 in 5.0 mi SSW 11.5 mph 19.6 mph N/A   Drizzle
6:54 PM 35.2 °F 26.6 °F 33.1 °F 92% 29.44 in 5.0 mi SW 12.7 mph 19.6 mph N/A Rain Rain
7:15 PM 35.2 °F 26.2 °F 33.1 °F 92% 29.42 in 5.0 mi SW 13.8 mph 20.7 mph N/A Rain Light Rain
7:34 PM 35.2 °F 25.8 °F 33.1 °F 92% 29.41 in 5.0 mi SW 15.0 mph 25.3 mph N/A Rain Rain
7:55 PM 35.2 °F 25.0 °F 33.1 °F 92% 29.40 in 5.0 mi SW 17.3 mph 23.0 mph N/A Rain Light Rain
8:15 PM 35.2 °F 25.8 °F 33.3 °F 92% 29.39 in 4.0 mi SW 15.0 mph 25.3 mph N/A Rain Light Rain
8:34 PM 35.2 °F 25.4 °F 33.3 °F 92% 29.38 in 5.0 mi SW 16.1 mph 24.2 mph N/A Rain Rain
8:55 PM 32.9 °F 22.8 °F 31.1 °F 93% 29.41 in 1.0 mi West 15.0 mph 28.8 mph N/A Snow Light Snow
9:15 PM 32.9 °F 23.7 °F 31.6 °F 95% 29.41 in 2.5 mi West 12.7 mph 24.2 mph N/A Snow Light Snow
9:34 PM 32.9 °F 24.7 °F 31.6 °F 95% 29.40 in 10.0 mi West 10.4 mph - N/A   Overcast
9:55 PM 33.6 °F 23.3 °F 31.6 °F 92% 29.39 in 10.0 mi West 16.1 mph 25.3 mph N/A   Overcast
10:15 PM 32.9 °F 24.7 °F 28.9 °F 85% 29.40 in 10.0 mi WNW 10.4 mph 20.7 mph N/A   Overcast
10:34 PM 32.9 °F 24.1 °F 27.9 °F 82% 29.41 in 10.0 mi WNW 11.5 mph 20.7 mph N/A   Overcast
10:55 PM 32.9 °F 22.8 °F 27.9 °F 82% 29.40 in 10.0 mi WNW 15.0 mph 25.3 mph N/A   Overcast
11:15 PM 32.4 °F 23.0 °F 27.5 °F 82% 29.39 in 10.0 mi NW 12.7 mph 24.2 mph N/A   Overcast
11:34 PM 28.8 °F 17.9 °F 23.5 °F 81% 29.40 in 10.0 mi NW 13.8 mph 26.5 mph N/A   Overcast
11:55 PM 28.0 °F 14.3 °F 21.4 °F 76% 29.42 in 7.0 mi NW 21.9 mph 31.1 mph N/A Snow Light Snow